Date String (YYYY-MM-DD hh:mm:ss) UTC,Instrument flags,absolute air pressure of the measurement (hPa),sample flow rate (lpm),inlet stack bypass flow (lpm),air temperature of the measurement (°C),ambient temperature measured by the external sensor (°C),aerosol sample conditioner tube jacket temperature (°C),OPC LED temperature (°C),internal box temperature (°C),relative humidity of the measurement (%),span deviation,mass concentration of particles derived from Lorenz-Mie calculation of OPC scattering (μg/m³),mass concentration of particles derived from Lorenz-Mie calculation of OPC scattering (μg/m³),mass concentration of particles derived from Lorenz-Mie calculation of OPC scattering (μg/m³)
DateTimeUTC,F1_M11,P_M11,Q1_M11,Q2_M11,T1_M11,T2_M11,T3_M11,T4_M11,T5_M11,U1_M11,ZSPAN_M11,X2_M11,X0_M11,X1_M11
2024-02-28 04:00:00,SystemResetWarning,0825.2,5.01,000.00,018.8,018.3,000.0,027.3,020.6,05.9,0000.0,0001.12,0004.81,0000.60
2024-02-28 04:01:00,SystemResetWarning,0825.2,5.02,000.00,018.8,018.2,000.0,027.3,020.5,06.3,0000.0,0001.15,0005.63,0000.61
2024-02-28 04:02:00,SystemResetWarning,0825.1,4.99,000.00,018.8,018.1,000.0,027.3,020.5,06.0,0000.0,0001.11,0005.61,0000.62
2024-02-28 04:03:00,SystemResetWarning,0825.2,5.00,000.00,018.7,018.0,000.0,027.2,020.4,05.8,0000.0,0001.11,0005.60,0000.62
2024-02-28 04:04:00,SystemResetWarning,0825.3,5.00,000.00,018.7,018.0,000.0,027.2,020.3,06.2,0000.0,0001.10,0005.51,0000.62
2024-02-28 04:05:00,SystemResetWarning,0825.3,5.00,000.00,018.7,017.9,000.0,027.2,020.2,06.8,0000.0,0001.05,0005.44,0000.59
2024-02-28 04:06:00,SystemResetWarning,0825.3,4.99,000.00,018.6,017.8,000.0,027.2,020.2,06.6,0000.0,0001.03,0005.35,0000.56
2024-02-28 04:07:00,SystemResetWarning,0825.4,5.00,000.00,018.5,017.8,000.0,027.2,020.2,06.5,0000.0,0000.99,0005.16,0000.54
2024-02-28 04:08:00,SystemResetWarning,0825.6,4.99,000.00,018.5,017.7,000.0,027.1,020.1,07.0,0000.0,0000.98,0003.93,0000.53
2024-02-28 04:09:00,SystemResetWarning,0825.6,5.01,000.00,018.5,017.6,000.0,027.1,020.0,08.6,0000.0,0000.94,0003.71,0000.51
2024-02-28 04:10:00,SystemResetWarning,0825.7,5.00,000.00,018.4,017.6,000.0,027.1,020.0,08.2,0000.0,0000.92,0002.97,0000.48
2024-02-28 04:11:00,SystemResetWarning,0825.6,5.00,000.00,018.4,017.5,000.0,027.1,020.0,07.5,0000.0,0000.88,0002.77,0000.45
2024-02-28 04:12:00,SystemResetWarning,0825.6,5.01,000.00,018.4,017.8,000.0,027.2,020.2,06.5,0000.0,0000.86,0002.33,0000.43
2024-02-28 04:13:00,SystemResetWarning,0825.6,5.00,000.00,018.6,018.6,000.0,027.3,020.7,06.2,0000.0,0000.86,0001.94,0000.40
2024-02-28 04:14:00,SystemResetWarning,0825.5,5.00,000.00,018.8,019.1,000.0,027.3,021.0,06.0,0000.0,0000.85,0001.91,0000.39
2024-02-28 04:15:00,SystemResetWarning,0825.5,4.99,000.00,018.8,018.9,000.0,027.2,020.8,05.9,0000.0,0000.84,0001.94,0000.37
2024-02-28 04:16:00,SystemResetWarning,0825.6,5.00,000.00,018.8,018.7,000.0,027.2,020.6,05.7,0000.0,0000.89,0002.65,0000.37
2024-02-28 04:17:00,SystemResetWarning,0825.6,5.01,000.00,018.8,018.5,000.0,027.2,020.5,05.9,0000.0,0000.92,0003.29,0000.37
2024-02-28 04:18:00,SystemResetWarning,0825.6,5.00,000.00,018.7,018.4,000.0,027.1,020.4,05.8,0000.0,0000.96,0003.73,0000.37
2024-02-28 04:19:00,SystemResetWarning,0825.4,5.01,000.00,018.7,018.2,000.0,027.1,020.3,05.6,0000.0,0000.98,0003.80,0000.37
2024-02-28 04:20:00,SystemResetWarning,0825.5,5.00,000.00,018.6,018.1,000.0,027.1,020.2,05.8,0000.0,0001.04,0004.52,0000.37
2024-02-28 04:21:00,SystemResetWarning,0825.7,4.99,000.00,018.6,018.0,000.0,027.1,020.1,05.8,0000.0,0001.04,0005.07,0000.38
2024-02-28 04:22:00,SystemResetWarning,0825.6,4.99,000.00,018.5,017.9,000.0,027.0,020.0,05.5,0000.0,0001.05,0005.47,0000.39
2024-02-28 04:23:00,SystemResetWarning,0825.6,5.00,000.00,018.5,017.7,000.0,027.0,020.0,05.5,0000.0,0001.02,0005.55,0000.39
2024-02-28 04:24:00,SystemResetWarning,0825.7,5.00,000.00,018.4,017.6,000.0,027.0,020.0,05.6,0000.0,0001.00,0005.52,0000.39
2024-02-28 04:25:00,SystemResetWarning,0825.7,5.00,000.00,018.4,017.5,000.0,027.1,020.0,05.4,0000.0,0001.05,0005.65,0000.39
2024-02-28 04:26:00,SystemResetWarning,0825.7,5.01,000.00,018.4,017.5,000.0,027.1,020.1,05.5,0000.0,0001.05,0005.62,0000.39
2024-02-28 04:27:00,SystemResetWarning,0825.6,5.01,000.00,018.5,018.2,000.0,027.2,020.4,05.5,0000.0,0001.02,0005.22,0000.39
2024-02-28 04:28:00,SystemResetWarning,0825.7,5.00,000.00,018.7,019.0,000.0,027.3,021.0,05.5,0000.0,0001.02,0004.86,0000.40
2024-02-28 04:29:00,SystemResetWarning,0825.7,4.99,000.00,018.9,019.2,000.0,027.2,021.1,05.4,0000.0,0001.00,0005.42,0000.40
2024-02-28 04:30:00,SystemResetWarning,0825.6,4.99,000.00,018.9,018.9,000.0,027.2,020.8,05.4,0000.0,0001.05,0005.95,0000.40
2024-02-28 04:31:00,SystemResetWarning,0825.6,5.02,000.00,018.8,018.6,000.0,027.1,020.5,05.4,0000.0,0001.04,0005.59,0000.40
2024-02-28 04:32:00,SystemResetWarning,0825.6,5.00,000.00,018.7,018.4,000.0,027.1,020.3,05.4,0000.0,0001.08,0005.00,0000.39
2024-02-28 04:33:00,SystemResetWarning,0825.6,4.98,000.00,018.7,018.2,000.0,027.1,020.2,05.5,0000.0,0001.11,0005.30,0000.39
2024-02-28 04:34:00,SystemResetWarning,0825.7,5.00,000.00,018.6,018.0,000.0,027.0,020.0,05.3,0000.0,0001.15,0005.26,0000.38
2024-02-28 04:35:00,SystemResetWarning,0825.7,5.00,000.00,018.5,017.8,000.0,027.0,020.0,05.4,0000.0,0001.16,0005.39,0000.37
2024-02-28 04:36:00,SystemResetWarning,0825.6,5.01,000.00,018.5,017.7,000.0,027.0,020.0,05.6,0000.0,0001.12,0006.04,0000.37
2024-02-28 04:37:00,SystemResetWarning,0825.5,5.00,000.00,018.4,017.5,000.0,027.1,020.0,05.6,0000.0,0001.07,0007.25,0000.37
2024-02-28 04:38:00,SystemResetWarning,0825.5,5.00,000.00,018.4,017.4,000.0,027.1,020.0,05.5,0000.0,0001.08,0007.48,0000.37
2024-02-28 04:39:00,SystemResetWarning,0825.5,5.00,000.00,018.4,017.4,000.0,027.1,020.0,05.5,0000.0,0001.05,0007.59,0000.36
2024-02-28 04:40:00,SystemResetWarning,0825.5,5.00,000.00,018.4,017.8,000.0,027.1,020.3,05.6,0000.0,0001.03,0006.91,0000.36
2024-02-28 04:41:00,SystemResetWarning,0825.5,5.01,000.00,018.6,018.7,000.0,027.2,020.8,05.6,0000.0,0000.95,0006.30,0000.36
2024-02-28 04:42:00,SystemResetWarning,0825.6,4.99,000.00,018.8,019.2,000.0,027.2,021.1,05.5,0000.0,0000.92,0006.74,0000.36
2024-02-28 04:43:00,SystemResetWarning,0825.6,5.00,000.00,018.8,019.0,000.0,027.2,020.8,05.4,0000.0,0000.88,0006.56,0000.36
2024-02-28 04:44:00,SystemResetWarning,0825.7,4.99,000.00,018.8,018.6,000.0,027.1,020.5,05.5,0000.0,0000.84,0005.88,0000.36
2024-02-28 04:45:00,SystemResetWarning,0825.7,5.01,000.00,018.7,018.4,000.0,027.1,020.3,05.7,0000.0,0000.79,0005.79,0000.37
2024-02-28 04:46:00,SystemResetWarning,0825.6,5.00,000.00,018.6,018.1,000.0,027.0,020.1,05.8,0000.0,0000.78,0005.59,0000.37
2024-02-28 04:47:00,SystemResetWarning,0825.6,4.99,000.00,018.5,017.9,000.0,027.1,020.0,05.7,0000.0,0000.79,0004.79,0000.36
2024-02-28 04:48:00,SystemResetWarning,0825.6,5.00,000.00,018.5,017.8,000.0,027.1,020.0,05.7,0000.0,0000.78,0003.49,0000.36
2024-02-28 04:49:00,SystemResetWarning,0825.6,5.01,000.00,018.4,017.6,000.0,027.1,020.0,05.7,0000.0,0000.74,0002.79,0000.35
2024-02-28 04:50:00,SystemResetWarning,0825.7,5.00,000.00,018.4,017.4,000.0,027.1,020.0,05.8,0000.0,0000.76,0002.50,0000.35
2024-02-28 04:51:00,SystemResetWarning,0825.6,4.99,000.00,018.4,017.7,000.0,027.2,020.2,05.8,0000.0,0000.77,0002.44,0000.35
2024-02-28 04:52:00,SystemResetWarning,0825.6,5.01,000.00,018.6,018.5,000.0,027.3,020.7,05.8,0000.0,0000.78,0002.39,0000.34
2024-02-28 04:53:00,SystemResetWarning,0825.6,5.00,000.00,018.8,019.2,000.0,027.3,021.1,05.5,0000.0,0000.80,0001.92,0000.33
2024-02-28 04:54:00,SystemResetWarning,0825.5,4.98,000.00,018.9,019.0,000.0,027.2,020.9,05.6,0000.0,0000.83,0002.05,0000.33
2024-02-28 04:55:00,SystemResetWarning,0825.5,5.01,000.00,018.8,018.7,000.0,027.2,020.6,05.5,0000.0,0000.79,0002.52,0000.33
2024-02-28 04:56:00,SystemResetWarning,0825.6,5.00,000.00,018.7,018.3,000.0,027.1,020.2,05.5,0000.0,0000.78,0002.63,0000.33
2024-02-28 04:57:00,SystemResetWarning,0825.6,5.00,000.00,018.6,018.0,000.0,027.1,020.0,05.7,0000.0,0000.80,0003.15,0000.33
2024-02-28 04:58:00,SystemResetWarning,0825.6,4.99,000.00,018.5,017.8,000.0,027.1,020.0,05.8,0000.0,0000.80,0003.20,0000.33
2024-02-28 04:59:00,SystemResetWarning,0825.7,5.01,000.00,018.5,017.6,000.0,027.2,020.0,05.7,0000.0,0000.81,0003.24,0000.33
